SWR12G LTAI-OSDI

Flight info

Callsign SWR12G
Flight time 1h 1m
Altitude 39000
Route ADASU UN135 VESAR L620 BALMA UR655 LEBOR
Aircraft MD11/H-SDE1E2E3FGHIJ2J3J4J5M1RWXY/LB1D1

Departure

Time 2026-04-14 11:37
Airport Antalya International Airport (LTAI)

Arrival

Time 2026-04-14 12:39
Airport Damascus International Airport (OSDI)
Time Latitude Longitude Altitude Speed Heading
2026-04-14 11:00 36.89735 30.80027 199 ft 0 kts 61°
2026-04-14 11:22 36.89724 30.80004 214 ft 4 kts 57°
2026-04-14 11:22 36.89710 30.79976 206 ft 4 kts 67°
2026-04-14 11:22 36.89702 30.79945 214 ft 4 kts 77°
2026-04-14 11:22 36.89696 30.79912 214 ft 4 kts 78°
2026-04-14 11:23 36.89692 30.79885 212 ft 0 kts 84°
2026-04-14 11:30 36.89692 30.79891 212 ft 1 kts 90°
2026-04-14 11:31 36.89689 30.79900 212 ft 1 kts 110°
2026-04-14 11:31 36.89681 30.79914 213 ft 3 kts 129°
2026-04-14 11:31 36.89640 30.79953 206 ft 12 kts 136°
2026-04-14 11:31 36.89611 30.80078 201 ft 19 kts 97°
2026-04-14 11:32 36.89594 30.80256 208 ft 26 kts 95°
2026-04-14 11:32 36.89571 30.80517 199 ft 33 kts 97°
2026-04-14 11:32 36.89585 30.80689 213 ft 5 kts 32°
2026-04-14 11:32 36.89637 30.80700 211 ft 12 kts
2026-04-14 11:33 36.89755 30.80715 202 ft 22 kts
2026-04-14 11:33 36.89940 30.80741 206 ft 31 kts
2026-04-14 11:33 36.90172 30.80773 206 ft 38 kts
2026-04-14 11:34 36.90742 30.80851 206 ft 41 kts
2026-04-14 11:34 36.91012 30.80889 208 ft 35 kts
2026-04-14 11:34 36.91129 30.80954 209 ft 8 kts 68°
2026-04-14 11:34 36.91133 30.80997 210 ft 0 kts 90°
2026-04-14 11:35 36.91133 30.80998 210 ft 1 kts 90°
2026-04-14 11:36 36.91133 30.81012 210 ft 3 kts 90°
2026-04-14 11:36 36.91124 30.81078 205 ft 14 kts 112°
2026-04-14 11:36 36.91010 30.81128 205 ft 23 kts 186°
2026-04-14 11:36 36.90967 30.81123 204 ft 0 kts 186°
2026-04-14 11:37 36.90782 30.81099 205 ft 83 kts 186°
2026-04-14 11:37 36.89830 30.80964 242 ft 181 kts 185°
2026-04-14 11:37 36.88528 30.80777 1297 ft 201 kts 185°
2026-04-14 11:37 36.87212 30.80631 2943 ft 172 kts 191°
2026-04-14 11:38 36.86200 30.79909 4289 ft 184 kts 229°
2026-04-14 11:38 36.85666 30.78272 4640 ft 232 kts 267°
2026-04-14 11:38 36.86136 30.76223 5009 ft 261 kts 307°
2026-04-14 11:38 36.87538 30.74812 6141 ft 264 kts 337°
2026-04-14 11:39 36.89364 30.74572 7287 ft 271 kts
2026-04-14 11:39 36.91060 30.75628 8414 ft 281 kts 41°
2026-04-14 11:39 36.92094 30.77714 9630 ft 291 kts 73°
2026-04-14 11:39 36.92230 30.80278 10595 ft 309 kts 96°
2026-04-14 11:40 36.91551 30.82995 10768 ft 349 kts 119°
2026-04-14 11:40 36.90037 30.85513 11199 ft 373 kts 133°
2026-04-14 11:40 36.88281 30.87905 12227 ft 379 kts 132°
2026-04-14 11:40 36.86576 30.90479 13112 ft 388 kts 128°
2026-04-14 11:41 36.85174 30.92989 13893 ft 396 kts 120°
2026-04-14 11:41 36.84039 30.96143 14764 ft 402 kts 109°
2026-04-14 11:41 36.83203 30.99491 15642 ft 407 kts 105°
2026-04-14 11:41 36.82487 31.02939 16514 ft 414 kts 103°
2026-04-14 11:42 36.81803 31.06454 17415 ft 420 kts 103°
2026-04-14 11:42 36.81111 31.10019 18302 ft 426 kts 103°
2026-04-14 11:42 36.80397 31.13629 19082 ft 432 kts 104°
2026-04-14 11:42 36.79670 31.17236 19830 ft 438 kts 104°
2026-04-14 11:43 36.78912 31.20942 20554 ft 444 kts 104°
2026-04-14 11:43 36.78137 31.24695 21260 ft 450 kts 105°
2026-04-14 11:43 36.77346 31.28506 21978 ft 457 kts 105°
2026-04-14 11:43 36.76543 31.32361 22689 ft 463 kts 105°
2026-04-14 11:44 36.75721 31.36275 23372 ft 469 kts 107°
2026-04-14 11:44 36.74707 31.40227 24022 ft 475 kts 111°
2026-04-14 11:44 36.73534 31.44024 24630 ft 479 kts 113°
2026-04-14 11:44 36.72249 31.47875 25242 ft 483 kts 114°
2026-04-14 11:45 36.70923 31.51752 25852 ft 488 kts 114°
2026-04-14 11:45 36.69590 31.55656 26462 ft 492 kts 114°
2026-04-14 11:45 36.68268 31.59611 27049 ft 497 kts 113°
2026-04-14 11:45 36.66987 31.63638 27660 ft 502 kts 112°
2026-04-14 11:46 36.65735 31.67707 28282 ft 506 kts 111°
2026-04-14 11:46 36.64485 31.71830 28847 ft 511 kts 111°
2026-04-14 11:46 36.63228 31.75988 29425 ft 515 kts 111°
2026-04-14 11:46 36.61956 31.80181 29980 ft 520 kts 111°
2026-04-14 11:47 36.60671 31.84401 30512 ft 524 kts 111°
2026-04-14 11:47 36.59368 31.88660 30997 ft 528 kts 111°
2026-04-14 11:47 36.58104 31.92781 31548 ft 529 kts 111°
2026-04-14 11:47 36.56789 31.97054 32170 ft 529 kts 111°
2026-04-14 11:48 36.55476 32.01318 32772 ft 528 kts 111°
2026-04-14 11:48 36.54160 32.05585 33375 ft 528 kts 111°
2026-04-14 11:48 36.52845 32.09841 33961 ft 527 kts 111°
2026-04-14 11:48 36.51532 32.14087 34525 ft 526 kts 111°
2026-04-14 11:49 36.50218 32.18328 35006 ft 526 kts 111°
2026-04-14 11:49 36.48900 32.22575 35437 ft 527 kts 111°
2026-04-14 11:49 36.47582 32.26819 35873 ft 527 kts 110°
2026-04-14 11:49 36.46258 32.31071 36287 ft 528 kts 110°
2026-04-14 11:50 36.44931 32.35326 36700 ft 528 kts 110°
2026-04-14 11:50 36.43604 32.39579 37131 ft 529 kts 110°
2026-04-14 11:50 36.42275 32.43833 37501 ft 529 kts 110°
2026-04-14 11:51 36.39609 32.52344 38336 ft 529 kts 110°
2026-04-14 11:51 36.38269 32.56591 38769 ft 528 kts 110°
2026-04-14 11:51 36.36915 32.60848 39111 ft 528 kts 110°
2026-04-14 11:51 36.35584 32.65028 39202 ft 533 kts 110°
2026-04-14 11:52 36.32857 32.73616 39223 ft 528 kts 110°
2026-04-14 11:52 36.30205 32.81994 39229 ft 526 kts 110°
2026-04-14 11:53 36.27532 32.90449 39223 ft 527 kts 110°
2026-04-14 11:53 36.24851 32.98898 39223 ft 526 kts 110°
2026-04-14 11:54 36.22172 33.07315 39227 ft 526 kts 110°
2026-04-14 11:54 36.19477 33.15758 39219 ft 527 kts 110°
2026-04-14 11:55 36.16777 33.24191 39213 ft 527 kts 110°
2026-04-14 11:55 36.14069 33.32604 39223 ft 526 kts 110°
2026-04-14 11:56 36.11357 33.41021 39222 ft 527 kts 110°
2026-04-14 11:56 36.08651 33.49430 39220 ft 526 kts 110°
2026-04-14 11:57 36.05947 33.57825 39223 ft 525 kts 110°
2026-04-14 11:57 36.03239 33.66204 39219 ft 525 kts 110°
2026-04-14 11:58 36.00529 33.74567 39213 ft 524 kts 110°
2026-04-14 11:58 35.97816 33.82913 39214 ft 523 kts 110°
2026-04-14 11:59 35.95823 33.89032 39211 ft 523 kts 110°
2026-04-14 11:59 35.92963 33.97275 39212 ft 523 kts 117°
2026-04-14 12:00 35.88626 34.04424 39210 ft 521 kts 138°
2026-04-14 12:00 35.85820 34.07229 39209 ft 518 kts 149°
2026-04-14 12:00 35.82720 34.09455 39212 ft 515 kts 156°
2026-04-14 12:01 35.76284 34.13359 39205 ft 516 kts 156°
2026-04-14 12:01 35.69972 34.17577 39205 ft 517 kts 153°
2026-04-14 12:02 35.63765 34.22063 39203 ft 517 kts 152°
2026-04-14 12:02 35.57590 34.26599 39205 ft 517 kts 152°
2026-04-14 12:03 35.51406 34.31120 39198 ft 517 kts 152°
2026-04-14 12:03 35.45221 34.35618 39200 ft 517 kts 152°
2026-04-14 12:04 35.39038 34.40101 39199 ft 516 kts 152°
2026-04-14 12:04 35.32867 34.44569 39199 ft 515 kts 152°
2026-04-14 12:05 35.26700 34.49026 39195 ft 514 kts 152°
2026-04-14 12:05 35.20542 34.53468 39200 ft 514 kts 152°
2026-04-14 12:06 35.14389 34.57900 39195 ft 513 kts 152°
2026-04-14 12:06 35.08610 34.62054 39191 ft 512 kts 152°
2026-04-14 12:07 35.02469 34.66460 39192 ft 512 kts 152°
2026-04-14 12:07 34.96377 34.70832 39190 ft 511 kts 152°
2026-04-14 12:08 34.90217 34.75262 39190 ft 510 kts 152°
2026-04-14 12:08 34.84103 34.79658 39182 ft 510 kts 152°
2026-04-14 12:09 34.78042 34.84009 39181 ft 509 kts 152°
2026-04-14 12:09 34.72009 34.88331 39181 ft 509 kts 152°
2026-04-14 12:10 34.65914 34.92689 39176 ft 508 kts 152°
2026-04-14 12:10 34.59829 34.97034 39178 ft 507 kts 152°
2026-04-14 12:11 34.53731 35.01425 39174 ft 507 kts 150°
2026-04-14 12:11 34.48357 35.06965 39171 ft 511 kts 131°
2026-04-14 12:12 34.46298 35.10467 39173 ft 511 kts 120°
2026-04-14 12:12 34.44753 35.14341 39170 ft 511 kts 109°
2026-04-14 12:12 34.42819 35.22536 39170 ft 510 kts 103°
2026-04-14 12:13 34.40969 35.30833 39167 ft 510 kts 105°
2026-04-14 12:13 34.39941 35.34912 38359 ft 506 kts 106°
2026-04-14 12:13 34.38853 35.38970 36930 ft 509 kts 107°
2026-04-14 12:14 34.37721 35.43055 35457 ft 515 kts 107°
2026-04-14 12:14 34.36563 35.47177 33911 ft 521 kts 106°
2026-04-14 12:14 34.35388 35.51354 32143 ft 527 kts 106°
2026-04-14 12:14 34.34204 35.55573 30392 ft 532 kts 106°
2026-04-14 12:15 34.33016 35.59813 28919 ft 529 kts 106°
2026-04-14 12:15 34.31849 35.63972 27811 ft 517 kts 107°
2026-04-14 12:15 34.30714 35.68051 26708 ft 505 kts 105°
2026-04-14 12:15 34.29911 35.72133 25650 ft 493 kts 96°
2026-04-14 12:16 34.29555 35.76181 25202 ft 483 kts 91°
2026-04-14 12:16 34.29389 35.80247 24851 ft 482 kts 89°
2026-04-14 12:16 34.29282 35.84279 24499 ft 478 kts 89°
2026-04-14 12:16 34.29173 35.88278 24267 ft 474 kts 89°
2026-04-14 12:17 34.29043 35.92259 24203 ft 474 kts 90°
2026-04-14 12:17 34.28896 35.96223 23807 ft 466 kts 90°
2026-04-14 12:17 34.28747 36.00139 22518 ft 464 kts 90°
2026-04-14 12:17 34.28602 36.03994 21426 ft 455 kts 90°
2026-04-14 12:18 34.28464 36.07785 20389 ft 447 kts 90°
2026-04-14 12:18 34.28329 36.11505 19371 ft 439 kts 90°
2026-04-14 12:18 34.28199 36.15157 18344 ft 431 kts 90°
2026-04-14 12:18 34.28072 36.18741 17272 ft 424 kts 90°
2026-04-14 12:19 34.27956 36.22252 16831 ft 421 kts 90°
2026-04-14 12:19 34.27849 36.25770 16452 ft 416 kts 90°
2026-04-14 12:19 34.27745 36.29264 16082 ft 414 kts 90°
2026-04-14 12:19 34.27628 36.32727 15943 ft 412 kts 91°
2026-04-14 12:20 34.27487 36.36186 15922 ft 412 kts 91°
2026-04-14 12:20 34.27341 36.39642 15904 ft 412 kts 91°
2026-04-14 12:20 34.27103 36.43090 15909 ft 412 kts 97°
2026-04-14 12:20 34.26477 36.46473 15903 ft 413 kts 108°
2026-04-14 12:21 34.25277 36.49630 15907 ft 415 kts 122°
2026-04-14 12:21 34.23551 36.52379 15379 ft 407 kts 134°
2026-04-14 12:21 34.21380 36.54505 14348 ft 401 kts 150°
2026-04-14 12:21 34.18903 36.55947 13360 ft 392 kts 162°
2026-04-14 12:22 34.16292 36.56734 12340 ft 384 kts 174°
2026-04-14 12:22 34.13649 36.56897 11338 ft 377 kts 184°
2026-04-14 12:22 34.11075 36.56637 10891 ft 374 kts 188°
2026-04-14 12:22 34.08522 36.56261 10544 ft 373 kts 189°
2026-04-14 12:23 34.05908 36.55863 10193 ft 373 kts 188°
2026-04-14 12:23 34.03333 36.55488 9973 ft 373 kts 188°
2026-04-14 12:23 34.00799 36.55139 9929 ft 372 kts 188°
2026-04-14 12:23 33.98235 36.54801 9924 ft 363 kts 187°
2026-04-14 12:24 33.95824 36.54494 9915 ft 334 kts 187°
2026-04-14 12:24 33.93604 36.54216 9908 ft 306 kts 187°
2026-04-14 12:24 33.91518 36.53955 9915 ft 301 kts 187°
2026-04-14 12:24 33.89444 36.53693 9926 ft 300 kts 187°
2026-04-14 12:25 33.87368 36.53432 9906 ft 299 kts 187°
2026-04-14 12:25 33.85299 36.53170 9914 ft 299 kts 187°
2026-04-14 12:25 33.83902 36.52987 9917 ft 299 kts 188°
2026-04-14 12:26 33.81830 36.52713 9911 ft 299 kts 188°
2026-04-14 12:26 33.79762 36.52440 9916 ft 299 kts 187°
2026-04-14 12:26 33.77780 36.52178 9918 ft 299 kts 188°
2026-04-14 12:27 33.75715 36.51905 9914 ft 298 kts 187°
2026-04-14 12:27 33.73650 36.51632 9917 ft 299 kts 187°
2026-04-14 12:27 33.71587 36.51359 9918 ft 298 kts 187°
2026-04-14 12:27 33.69520 36.51086 9919 ft 298 kts 187°
2026-04-14 12:28 33.67458 36.50814 9938 ft 298 kts 187°
2026-04-14 12:28 33.65400 36.50543 9940 ft 297 kts 187°
2026-04-14 12:28 33.63343 36.50272 9940 ft 298 kts 187°
2026-04-14 12:28 33.61287 36.50004 9944 ft 298 kts 187°
2026-04-14 12:29 33.59237 36.49742 9895 ft 292 kts 187°
2026-04-14 12:29 33.57235 36.49488 8847 ft 289 kts 187°
2026-04-14 12:29 33.55257 36.49237 7939 ft 282 kts 187°
2026-04-14 12:29 33.53321 36.48991 7042 ft 276 kts 187°
2026-04-14 12:30 33.51435 36.48751 6201 ft 269 kts 187°
2026-04-14 12:30 33.49596 36.48518 5359 ft 263 kts 186°
2026-04-14 12:30 33.47810 36.48458 4936 ft 260 kts 174°
2026-04-14 12:30 33.46085 36.49053 4564 ft 260 kts 152°
2026-04-14 12:31 33.44718 36.50456 4190 ft 261 kts 126°
2026-04-14 12:31 33.44016 36.52440 3989 ft 261 kts 100°
2026-04-14 12:31 33.44105 36.54600 3968 ft 262 kts 74°
2026-04-14 12:31 33.44957 36.56517 3967 ft 263 kts 51°
2026-04-14 12:32 33.46217 36.58121 3980 ft 265 kts 44°
2026-04-14 12:32 33.47550 36.59638 3971 ft 265 kts 43°
2026-04-14 12:32 33.48891 36.61142 3958 ft 264 kts 44°
2026-04-14 12:32 33.50229 36.62652 3965 ft 264 kts 44°
2026-04-14 12:33 33.51568 36.64161 3944 ft 263 kts 41°
2026-04-14 12:33 33.53194 36.65135 3943 ft 265 kts
2026-04-14 12:33 33.54996 36.64892 3955 ft 263 kts 339°
2026-04-14 12:33 33.56512 36.63825 3924 ft 240 kts 313°
2026-04-14 12:34 33.57147 36.62201 3922 ft 196 kts 273°
2026-04-14 12:34 33.56887 36.60705 3918 ft 178 kts 240°
2026-04-14 12:34 33.56067 36.59645 3927 ft 171 kts 212°
2026-04-14 12:34 33.54974 36.59244 3493 ft 165 kts 179°
2026-04-14 12:35 33.53891 36.59399 3441 ft 155 kts 172°
2026-04-14 12:35 33.52830 36.59602 3484 ft 154 kts 169°
2026-04-14 12:35 33.51784 36.59858 3474 ft 152 kts 167°
2026-04-14 12:35 33.50767 36.60126 3465 ft 152 kts 172°
2026-04-14 12:36 33.49721 36.60105 3456 ft 151 kts 190°
2026-04-14 12:36 33.48752 36.59754 3118 ft 143 kts 206°
2026-04-14 12:36 33.47972 36.59041 2906 ft 144 kts 225°
2026-04-14 12:36 33.47267 36.58126 3039 ft 153 kts 228°
2026-04-14 12:37 33.46551 36.57172 2977 ft 154 kts 228°
2026-04-14 12:37 33.45832 36.56209 2944 ft 156 kts 228°
2026-04-14 12:37 33.45096 36.55250 2615 ft 155 kts 226°
2026-04-14 12:37 33.44360 36.54304 2308 ft 155 kts 229°
2026-04-14 12:38 33.42937 36.52363 2014 ft 156 kts 229°
2026-04-14 12:38 33.42283 36.51467 2009 ft 156 kts 229°
2026-04-14 12:38 33.41518 36.50474 2009 ft 158 kts 226°
2026-04-14 12:39 33.40737 36.49553 2008 ft 157 kts 223°
2026-04-14 12:39 33.40194 36.48994 2009 ft 0 kts 208°